Data supplied by UK-AIR on 15/3/2019
All Data GMT hour ending 
Status: R =Ratified P=Provisional,P*=As supplied
,,Doncaster A630 Cleveland Street,,,,,,,,,,,,,,,,,,,,,,,
Date,time,"Nitric oxide",status,unit,"Nitrogen dioxide",status,unit,"Nitrogen oxides as nitrogen dioxide",status,unit
 
01-01-2018,01:00,2.03053,R,ugm-3,4.98152,R,ugm-3,8.09496,R,ugm-3
01-01-2018,02:00,1.36943,R,ugm-3,4.64604,R,ugm-3,6.74580,R,ugm-3
01-01-2018,03:00,1.20415,R,ugm-3,5.29000,R,ugm-3,7.13634,R,ugm-3
01-01-2018,04:00,2.05414,R,ugm-3,6.06370,R,ugm-3,9.21334,R,ugm-3
01-01-2018,05:00,1.94789,R,ugm-3,5.21474,R,ugm-3,8.20147,R,ugm-3
01-01-2018,06:00,1.06249,R,ugm-3,4.33558,R,ugm-3,5.96470,R,ugm-3
01-01-2018,07:00,1.20415,R,ugm-3,4.75744,R,ugm-3,6.60378,R,ugm-3
01-01-2018,08:00,1.06249,R,ugm-3,5.93327,R,ugm-3,7.56239,R,ugm-3
01-01-2018,09:00,1.45207,R,ugm-3,10.02248,R,ugm-3,12.24894,R,ugm-3
01-01-2018,10:00,3.04580,R,ugm-3,11.14696,R,ugm-3,15.81712,R,ugm-3
01-01-2018,11:00,2.23122,R,ugm-3,10.53199,R,ugm-3,13.95315,R,ugm-3
01-01-2018,12:00,2.19581,R,ugm-3,12.98282,R,ugm-3,16.34968,R,ugm-3
01-01-2018,13:00,5.09994,R,ugm-3,17.84973,R,ugm-3,25.66953,R,ugm-3
01-01-2018,14:00,6.12701,R,ugm-3,20.64193,R,ugm-3,30.03654,R,ugm-3
01-01-2018,15:00,5.56035,R,ugm-3,21.19126,R,ugm-3,29.71700,R,ugm-3
01-01-2018,16:00,3.93120,R,ugm-3,22.14482,R,ugm-3,28.17257,R,ugm-3
01-01-2018,17:00,4.39161,R,ugm-3,20.79978,R,ugm-3,27.53350,R,ugm-3
01-01-2018,18:00,6.02076,R,ugm-3,24.21324,R,ugm-3,33.44494,R,ugm-3
01-01-2018,19:00,4.03745,R,ugm-3,14.57928,R,ugm-3,20.76995,R,ugm-3
01-01-2018,20:00,2.54997,R,ugm-3,8.97812,R,ugm-3,12.88802,R,ugm-3
01-01-2018,21:00,1.98331,R,ugm-3,7.55697,R,ugm-3,10.59800,R,ugm-3
01-01-2018,22:00,1.66456,R,ugm-3,5.11661,R,ugm-3,7.66890,R,ugm-3
01-01-2018,23:00,1.69998,R,ugm-3,5.06231,R,ugm-3,7.66890,R,ugm-3
01-01-2018,24:00,0.95624,R,ugm-3,2.20847,R,ugm-3,3.67468,R,ugm-3
02-01-2018,01:00,1.60460,R,ugm-3,2.22222,R,ugm-3,4.68257,R,ugm-3
02-01-2018,02:00,0.66072,R,ugm-3,3.88233,R,ugm-3,4.89541,R,ugm-3
02-01-2018,03:00,0.38935,R,ugm-3,3.34062,R,ugm-3,3.93762,R,ugm-3
02-01-2018,04:00,0.77870,R,ugm-3,3.54179,R,ugm-3,4.73578,R,ugm-3
02-01-2018,05:00,1.27424,R,ugm-3,8.68840,R,ugm-3,10.64220,R,ugm-3
02-01-2018,06:00,5.91105,R,ugm-3,15.73285,R,ugm-3,24.79633,R,ugm-3
02-01-2018,07:00,8.70729,R,ugm-3,32.67653,R,ugm-3,46.02752,R,ugm-3
02-01-2018,08:00,17.37919,R,ugm-3,57.26605,R,ugm-3,83.91376,R,ugm-3
02-01-2018,09:00,17.30840,R,ugm-3,49.87184,R,ugm-3,76.41101,R,ugm-3
02-01-2018,10:00,22.93628,R,ugm-3,51.99116,R,ugm-3,87.15963,R,ugm-3
02-01-2018,11:00,15.39704,R,ugm-3,47.10897,R,ugm-3,70.71743,R,ugm-3
02-01-2018,12:00,13.98122,R,ugm-3,45.76793,R,ugm-3,67.20550,R,ugm-3
02-01-2018,13:00,9.94613,R,ugm-3,30.40452,R,ugm-3,45.65505,R,ugm-3
02-01-2018,14:00,12.63619,R,ugm-3,28.30184,R,ugm-3,47.67706,R,ugm-3
02-01-2018,15:00,18.90119,R,ugm-3,38.86261,R,ugm-3,67.84404,R,ugm-3
02-01-2018,16:00,26.51122,R,ugm-3,56.56654,R,ugm-3,97.21651,R,ugm-3
02-01-2018,17:00,35.92643,R,ugm-3,65.54294,R,ugm-3,120.62936,R,ugm-3
02-01-2018,18:00,22.33456,R,ugm-3,56.47893,R,ugm-3,90.72477,R,ugm-3
02-01-2018,19:00,10.01692,R,ugm-3,36.62809,R,ugm-3,51.98716,R,ugm-3
02-01-2018,20:00,7.57464,R,ugm-3,34.09398,R,ugm-3,45.70826,R,ugm-3
02-01-2018,21:00,5.45091,R,ugm-3,26.22922,R,ugm-3,34.58716,R,ugm-3
02-01-2018,22:00,2.01754,R,ugm-3,11.85877,R,ugm-3,14.95229,R,ugm-3
02-01-2018,23:00,3.29178,R,ugm-3,10.01139,R,ugm-3,15.05872,R,ugm-3
02-01-2018,24:00,2.40689,R,ugm-3,3.91866,R,ugm-3,7.60917,R,ugm-3
03-01-2018,01:00,1.79232,R,ugm-3,5.47478,R,ugm-3,8.22297,R,ugm-3
03-01-2018,02:00,1.46216,R,ugm-3,3.14552,R,ugm-3,5.38746,R,ugm-3
03-01-2018,03:00,0.67212,R,ugm-3,2.37204,R,ugm-3,3.40261,R,ugm-3
03-01-2018,04:00,0.74287,R,ugm-3,0.88125,R,ugm-3,2.02030,R,ugm-3
03-01-2018,05:00,1.27349,R,ugm-3,0.75879,R,ugm-3,2.71145,R,ugm-3
03-01-2018,06:00,2.68848,R,ugm-3,2.84243,R,ugm-3,6.96471,R,ugm-3
03-01-2018,07:00,3.32523,R,ugm-3,3.78007,R,ugm-3,8.87868,R,ugm-3
03-01-2018,08:00,4.24497,R,ugm-3,6.99523,R,ugm-3,13.50410,R,ugm-3
03-01-2018,09:00,5.87221,R,ugm-3,8.64710,R,ugm-3,17.65103,R,ugm-3
03-01-2018,10:00,6.33208,R,ugm-3,9.05845,R,ugm-3,18.76751,R,ugm-3
03-01-2018,11:00,6.96883,R,ugm-3,13.98352,R,ugm-3,24.66890,R,ugm-3
03-01-2018,12:00,6.40283,R,ugm-3,9.00313,R,ugm-3,18.82067,R,ugm-3
03-01-2018,13:00,8.70219,R,ugm-3,11.16623,R,ugm-3,24.50941,R,ugm-3
03-01-2018,14:00,6.33208,R,ugm-3,8.26096,R,ugm-3,17.97002,R,ugm-3
03-01-2018,15:00,8.44278,R,ugm-3,15.12610,R,ugm-3,28.07151,R,ugm-3
03-01-2018,16:00,,,,,,,,,
03-01-2018,17:00,10.64780,R,ugm-3,24.13272,R,ugm-3,40.45913,R,ugm-3
03-01-2018,18:00,5.94296,R,ugm-3,12.41971,R,ugm-3,21.53212,R,ugm-3
03-01-2018,19:00,5.51846,R,ugm-3,10.94397,R,ugm-3,19.40550,R,ugm-3
03-01-2018,20:00,5.37696,R,ugm-3,10.84194,R,ugm-3,19.08650,R,ugm-3
03-01-2018,21:00,5.23546,R,ugm-3,11.43106,R,ugm-3,19.45866,R,ugm-3
03-01-2018,22:00,3.07760,R,ugm-3,9.68899,R,ugm-3,14.40792,R,ugm-3
03-01-2018,23:00,4.35110,R,ugm-3,8.32115,R,ugm-3,14.99274,R,ugm-3
03-01-2018,24:00,1.69799,R,ugm-3,6.64729,R,ugm-3,9.25084,R,ugm-3
04-01-2018,01:00,2.88212,R,ugm-3,5.94414,R,ugm-3,10.36333,R,ugm-3
04-01-2018,02:00,0.66147,R,ugm-3,4.16743,R,ugm-3,5.18166,R,ugm-3
04-01-2018,03:00,0.35436,R,ugm-3,3.87527,R,ugm-3,4.41861,R,ugm-3
04-01-2018,04:00,1.91354,R,ugm-3,14.68716,R,ugm-3,17.62121,R,ugm-3
04-01-2018,05:00,1.27569,R,ugm-3,12.84365,R,ugm-3,14.79968,R,ugm-3
04-01-2018,06:00,4.53579,R,ugm-3,22.91077,R,ugm-3,29.86555,R,ugm-3
04-01-2018,07:00,7.22892,R,ugm-3,32.30338,R,ugm-3,43.38756,R,ugm-3
04-01-2018,08:00,7.65415,R,ugm-3,34.52613,R,ugm-3,46.26232,R,ugm-3
04-01-2018,09:00,11.33948,R,ugm-3,37.81906,R,ugm-3,55.20602,R,ugm-3
04-01-2018,10:00,16.79660,R,ugm-3,48.13752,R,ugm-3,73.89195,R,ugm-3
04-01-2018,11:00,9.81574,R,ugm-3,33.82031,R,ugm-3,48.87090,R,ugm-3
04-01-2018,12:00,14.35153,R,ugm-3,44.00761,R,ugm-3,66.01298,R,ugm-3
04-01-2018,13:00,27.00213,R,ugm-3,51.01548,R,ugm-3,92.41817,R,ugm-3
04-01-2018,14:00,14.49327,R,ugm-3,36.23072,R,ugm-3,58.45343,R,ugm-3
04-01-2018,15:00,13.89086,R,ugm-3,24.32446,R,ugm-3,45.62349,R,ugm-3
04-01-2018,16:00,5.91779,R,ugm-3,15.57458,R,ugm-3,24.64839,R,ugm-3
04-01-2018,17:00,5.59887,R,ugm-3,12.60323,R,ugm-3,21.18804,R,ugm-3
04-01-2018,18:00,4.46492,R,ugm-3,10.50891,R,ugm-3,17.35503,R,ugm-3
04-01-2018,19:00,2.97661,R,ugm-3,7.89321,R,ugm-3,12.45729,R,ugm-3
04-01-2018,20:00,3.82707,R,ugm-3,9.88984,R,ugm-3,15.75794,R,ugm-3
04-01-2018,21:00,3.43728,R,ugm-3,7.93217,R,ugm-3,13.20260,R,ugm-3
04-01-2018,22:00,2.94118,R,ugm-3,8.95904,R,ugm-3,13.46878,R,ugm-3
04-01-2018,23:00,4.28774,R,ugm-3,13.76181,R,ugm-3,20.33626,R,ugm-3
04-01-2018,24:00,3.47272,R,ugm-3,21.71927,R,ugm-3,27.04403,R,ugm-3
05-01-2018,01:00,5.20622,R,ugm-3,18.03096,R,ugm-3,26.01372,R,ugm-3
05-01-2018,02:00,2.79243,R,ugm-3,20.66592,R,ugm-3,24.94759,R,ugm-3
05-01-2018,03:00,2.09432,R,ugm-3,17.73833,R,ugm-3,20.94958,R,ugm-3
05-01-2018,04:00,2.94625,R,ugm-3,24.90784,R,ugm-3,29.42536,R,ugm-3
05-01-2018,05:00,3.72718,R,ugm-3,29.41425,R,ugm-3,35.12918,R,ugm-3
05-01-2018,06:00,7.63185,R,ugm-3,27.31858,R,ugm-3,39.02058,R,ugm-3
05-01-2018,07:00,9.54869,R,ugm-3,35.84043,R,ugm-3,50.48155,R,ugm-3
05-01-2018,08:00,40.64404,R,ugm-3,63.64399,R,ugm-3,125.96398,R,ugm-3
05-01-2018,09:00,56.04972,R,ugm-3,72.64604,R,ugm-3,158.58775,R,ugm-3
05-01-2018,10:00,35.74545,R,ugm-3,65.29130,R,ugm-3,120.10023,R,ugm-3
05-01-2018,11:00,48.80834,R,ugm-3,67.54407,R,ugm-3,142.38248,R,ugm-3
05-01-2018,12:00,32.23125,R,ugm-3,59.59185,R,ugm-3,109.01242,R,ugm-3
05-01-2018,13:00,98.68159,R,ugm-3,65.75565,R,ugm-3,217.06531,R,ugm-3
05-01-2018,14:00,70.92296,R,ugm-3,60.02233,R,ugm-3,168.76935,R,ugm-3
05-01-2018,15:00,84.58929,R,ugm-3,63.80193,R,ugm-3,193.50370,R,ugm-3
05-01-2018,16:00,52.46453,R,ugm-3,69.88070,R,ugm-3,150.32519,R,ugm-3
05-01-2018,17:00,69.18361,R,ugm-3,69.29934,R,ugm-3,175.37939,R,ugm-3
05-01-2018,18:00,76.49598,R,ugm-3,70.34775,R,ugm-3,187.63996,R,ugm-3
05-01-2018,19:00,46.96250,R,ugm-3,69.89456,R,ugm-3,141.90272,R,ugm-3
05-01-2018,20:00,42.63187,R,ugm-3,64.64735,R,ugm-3,130.01530,R,ugm-3
05-01-2018,21:00,21.19169,R,ugm-3,57.11526,R,ugm-3,89.60874,R,ugm-3
05-01-2018,22:00,13.48885,R,ugm-3,56.18580,R,ugm-3,76.86841,R,ugm-3
05-01-2018,23:00,6.60244,R,ugm-3,46.48823,R,ugm-3,56.61183,R,ugm-3
05-01-2018,24:00,7.56086,R,ugm-3,37.92887,R,ugm-3,49.52202,R,ugm-3
06-01-2018,01:00,8.48653,R,ugm-3,31.82447,R,ugm-3,44.83696,R,ugm-3
06-01-2018,02:00,4.74108,R,ugm-3,25.11270,R,ugm-3,32.38225,R,ugm-3
06-01-2018,03:00,2.80909,R,ugm-3,23.71589,R,ugm-3,28.02310,R,ugm-3
06-01-2018,04:00,2.34683,R,ugm-3,24.58481,R,ugm-3,28.18324,R,ugm-3
06-01-2018,05:00,6.04487,R,ugm-3,33.96697,R,ugm-3,43.23565,R,ugm-3
06-01-2018,06:00,5.68929,R,ugm-3,22.12864,R,ugm-3,30.85210,R,ugm-3
06-01-2018,07:00,4.58699,R,ugm-3,15.06493,R,ugm-3,22.09822,R,ugm-3
06-01-2018,08:00,20.33922,R,ugm-3,36.22921,R,ugm-3,67.41558,R,ugm-3
06-01-2018,09:00,35.16694,R,ugm-3,45.03969,R,ugm-3,98.96158,R,ugm-3
06-01-2018,10:00,34.24243,R,ugm-3,45.28295,R,ugm-3,97.78728,R,ugm-3
06-01-2018,11:00,37.30043,R,ugm-3,51.37631,R,ugm-3,108.56951,R,ugm-3
06-01-2018,12:00,15.71667,R,ugm-3,25.80925,R,ugm-3,49.90781,R,ugm-3
06-01-2018,13:00,21.08594,R,ugm-3,38.50040,R,ugm-3,70.83173,R,ugm-3
06-01-2018,14:00,27.30861,R,ugm-3,43.05073,R,ugm-3,84.92334,R,ugm-3
06-01-2018,15:00,20.73036,R,ugm-3,33.17411,R,ugm-3,64.96022,R,ugm-3
06-01-2018,16:00,19.62806,R,ugm-3,35.34468,R,ugm-3,65.44062,R,ugm-3
06-01-2018,17:00,36.66038,R,ugm-3,65.80879,R,ugm-3,122.02059,R,ugm-3
06-01-2018,18:00,33.46016,R,ugm-3,68.31376,R,ugm-3,119.61862,R,ugm-3
06-01-2018,19:00,31.50446,R,ugm-3,70.77868,R,ugm-3,119.08484,R,ugm-3
06-01-2018,20:00,27.48640,R,ugm-3,62.42098,R,ugm-3,104.56621,R,ugm-3
06-01-2018,21:00,30.68663,R,ugm-3,62.26462,R,ugm-3,109.31679,R,ugm-3
06-01-2018,22:00,80.39682,R,ugm-3,77.69227,R,ugm-3,200.96568,R,ugm-3
06-01-2018,23:00,38.47384,R,ugm-3,57.74383,R,ugm-3,116.73624,R,ugm-3
06-01-2018,24:00,22.25936,R,ugm-3,54.95624,R,ugm-3,89.08678,R,ugm-3
07-01-2018,01:00,9.64093,R,ugm-3,41.65840,R,ugm-3,56.44095,R,ugm-3
07-01-2018,02:00,3.27697,R,ugm-3,17.49476,R,ugm-3,22.51937,R,ugm-3
07-01-2018,03:00,3.24135,R,ugm-3,21.32636,R,ugm-3,26.29635,R,ugm-3
07-01-2018,04:00,4.38116,R,ugm-3,30.48203,R,ugm-3,37.19972,R,ugm-3
07-01-2018,05:00,3.27697,R,ugm-3,23.78379,R,ugm-3,28.80840,R,ugm-3
07-01-2018,06:00,6.23336,R,ugm-3,26.94721,R,ugm-3,36.50490,R,ugm-3
07-01-2018,07:00,7.30193,R,ugm-3,43.05345,R,ugm-3,54.24959,R,ugm-3
07-01-2018,08:00,9.04727,R,ugm-3,39.89627,R,ugm-3,53.76856,R,ugm-3
07-01-2018,09:00,30.13383,R,ugm-3,61.17221,R,ugm-3,107.37677,R,ugm-3
07-01-2018,10:00,27.03496,R,ugm-3,46.46871,R,ugm-3,87.92175,R,ugm-3
07-01-2018,11:00,14.74634,R,ugm-3,29.18024,R,ugm-3,51.79099,R,ugm-3
07-01-2018,12:00,23.90047,R,ugm-3,33.36983,R,ugm-3,70.01671,R,ugm-3
07-01-2018,13:00,35.44109,R,ugm-3,42.55874,R,ugm-3,96.90099,R,ugm-3
07-01-2018,14:00,15.88616,R,ugm-3,32.93768,R,ugm-3,57.29612,R,ugm-3
07-01-2018,15:00,3.24135,R,ugm-3,15.66088,R,ugm-3,20.63088,R,ugm-3
07-01-2018,16:00,2.92077,R,ugm-3,22.40582,R,ugm-3,26.88428,R,ugm-3
07-01-2018,17:00,3.49068,R,ugm-3,33.98533,R,ugm-3,39.33763,R,ugm-3
07-01-2018,18:00,40.71273,R,ugm-3,60.50479,R,ugm-3,122.93010,R,ugm-3
07-01-2018,19:00,41.53197,R,ugm-3,61.27965,R,ugm-3,124.96112,R,ugm-3
07-01-2018,20:00,70.45475,R,ugm-3,69.63161,R,ugm-3,177.66072,R,ugm-3
07-01-2018,21:00,50.72172,R,ugm-3,64.39911,R,ugm-3,142.17134,R,ugm-3
07-01-2018,22:00,61.51434,R,ugm-3,68.21431,R,ugm-3,162.53498,R,ugm-3
07-01-2018,23:00,31.95041,R,ugm-3,59.13510,R,ugm-3,108.12504,R,ugm-3
07-01-2018,24:00,40.24968,R,ugm-3,61.05444,R,ugm-3,122.76976,R,ugm-3
08-01-2018,01:00,40.67553,R,ugm-3,53.73097,R,ugm-3,116.09926,R,ugm-3
08-01-2018,02:00,8.99143,R,ugm-3,44.86950,R,ugm-3,58.65617,R,ugm-3
08-01-2018,03:00,2.31922,R,ugm-3,27.75218,R,ugm-3,31.30827,R,ugm-3
08-01-2018,04:00,6.13701,R,ugm-3,44.85771,R,ugm-3,54.26766,R,ugm-3
08-01-2018,05:00,23.12083,R,ugm-3,48.19782,R,ugm-3,83.64926,R,ugm-3
08-01-2018,06:00,101.33203,R,ugm-3,68.97553,R,ugm-3,224.34915,R,ugm-3
08-01-2018,07:00,87.98760,R,ugm-3,74.50507,R,ugm-3,209.41751,R,ugm-3
08-01-2018,08:00,110.82299,R,ugm-3,85.57064,R,ugm-3,255.49686,R,ugm-3
08-01-2018,09:00,229.45997,R,ugm-3,102.32346,R,ugm-3,454.15717,R,ugm-3
08-01-2018,10:00,144.86199,R,ugm-3,95.24551,R,ugm-3,317.36413,R,ugm-3
08-01-2018,11:00,107.18360,R,ugm-3,83.23024,R,ugm-3,247.57613,R,ugm-3
08-01-2018,12:00,108.39673,R,ugm-3,85.97271,R,ugm-3,252.17872,R,ugm-3
08-01-2018,13:00,18.87488,R,ugm-3,44.32562,R,ugm-3,73.26670,R,ugm-3
08-01-2018,14:00,21.69362,R,ugm-3,40.37824,R,ugm-3,73.64132,R,ugm-3
08-01-2018,15:00,30.82777,R,ugm-3,48.95750,R,ugm-3,96.22609,R,ugm-3
08-01-2018,16:00,33.46812,R,ugm-3,52.56216,R,ugm-3,103.87922,R,ugm-3
08-01-2018,17:00,52.52139,R,ugm-3,63.53986,R,ugm-3,144.07154,R,ugm-3
08-01-2018,18:00,31.82682,R,ugm-3,57.48710,R,ugm-3,106.28755,R,ugm-3
08-01-2018,19:00,10.16888,R,ugm-3,35.08986,R,ugm-3,50.68193,R,ugm-3
08-01-2018,20:00,28.54424,R,ugm-3,40.68483,R,ugm-3,84.45204,R,ugm-3
08-01-2018,21:00,19.73120,R,ugm-3,40.92539,R,ugm-3,71.17948,R,ugm-3
08-01-2018,22:00,26.15366,R,ugm-3,40.49700,R,ugm-3,80.59872,R,ugm-3
08-01-2018,23:00,25.68981,R,ugm-3,36.17749,R,ugm-3,75.56799,R,ugm-3
08-01-2018,24:00,6.02997,R,ugm-3,17.67393,R,ugm-3,26.91976,R,ugm-3
09-01-2018,01:00,3.47883,R,ugm-3,14.10079,R,ugm-3,19.43492,R,ugm-3
09-01-2018,02:00,4.62256,R,ugm-3,19.70665,R,ugm-3,26.79447,R,ugm-3
09-01-2018,03:00,2.78783,R,ugm-3,21.66243,R,ugm-3,25.93705,R,ugm-3
09-01-2018,04:00,1.85855,R,ugm-3,18.90737,R,ugm-3,21.75711,R,ugm-3
09-01-2018,05:00,4.93231,R,ugm-3,16.65942,R,ugm-3,24.22220,R,ugm-3
09-01-2018,06:00,28.55738,R,ugm-3,28.18257,R,ugm-3,71.96994,R,ugm-3
09-01-2018,07:00,31.98855,R,ugm-3,35.78286,R,ugm-3,84.83129,R,ugm-3
09-01-2018,08:00,40.42352,R,ugm-3,48.30416,R,ugm-3,110.28603,R,ugm-3
09-01-2018,09:00,57.61514,R,ugm-3,51.20361,R,ugm-3,139.54559,R,ugm-3
09-01-2018,10:00,67.90866,R,ugm-3,50.96122,R,ugm-3,155.08638,R,ugm-3
09-01-2018,11:00,57.72236,R,ugm-3,46.85927,R,ugm-3,135.36565,R,ugm-3
09-01-2018,12:00,46.96420,R,ugm-3,39.18627,R,ugm-3,111.19704,R,ugm-3
09-01-2018,13:00,51.86077,R,ugm-3,42.82480,R,ugm-3,122.34354,R,ugm-3
09-01-2018,14:00,69.48128,R,ugm-3,49.78245,R,ugm-3,156.31893,R,ugm-3
09-01-2018,15:00,77.59458,R,ugm-3,56.95578,R,ugm-3,175.93248,R,ugm-3
09-01-2018,16:00,93.28505,R,ugm-3,47.47358,R,ugm-3,190.50867,R,ugm-3
09-01-2018,17:00,93.99988,R,ugm-3,53.12973,R,ugm-3,197.26087,R,ugm-3
09-01-2018,18:00,75.73603,R,ugm-3,52.67820,R,ugm-3,168.80515,R,ugm-3
09-01-2018,19:00,67.22957,R,ugm-3,49.05508,R,ugm-3,152.13899,R,ugm-3
09-01-2018,20:00,49.57332,R,ugm-3,40.33022,R,ugm-3,116.34158,R,ugm-3
09-01-2018,21:00,49.93074,R,ugm-3,43.37265,R,ugm-3,119.93204,R,ugm-3
09-01-2018,22:00,49.32313,R,ugm-3,42.37509,R,ugm-3,118.00284,R,ugm-3
09-01-2018,23:00,40.60223,R,ugm-3,35.27598,R,ugm-3,97.53186,R,ugm-3
09-01-2018,24:00,33.41821,R,ugm-3,35.78789,R,ugm-3,87.02843,R,ugm-3
10-01-2018,01:00,33.79757,R,ugm-3,38.96961,R,ugm-3,90.79182,R,ugm-3
10-01-2018,02:00,24.15476,R,ugm-3,33.86527,R,ugm-3,70.90204,R,ugm-3
10-01-2018,03:00,26.60126,R,ugm-3,34.33522,R,ugm-3,75.12326,R,ugm-3
10-01-2018,04:00,26.67287,R,ugm-3,36.37181,R,ugm-3,77.26963,R,ugm-3
10-01-2018,05:00,30.07410,R,ugm-3,34.64452,R,ugm-3,80.75750,R,ugm-3
10-01-2018,06:00,47.00869,R,ugm-3,42.21568,R,ugm-3,114.29467,R,ugm-3
10-01-2018,07:00,61.75932,R,ugm-3,40.90117,R,ugm-3,135.59748,R,ugm-3
10-01-2018,08:00,68.20377,R,ugm-3,43.52247,R,ugm-3,148.10013,R,ugm-3
10-01-2018,09:00,87.89515,R,ugm-3,45.95441,R,ugm-3,180.72509,R,ugm-3
10-01-2018,10:00,120.26062,R,ugm-3,51.16803,R,ugm-3,235.56507,R,ugm-3
10-01-2018,11:00,113.31493,R,ugm-3,46.47132,R,ugm-3,220.21846,R,ugm-3
10-01-2018,12:00,139.84459,R,ugm-3,54.51588,R,ugm-3,268.94126,R,ugm-3
10-01-2018,13:00,133.04211,R,ugm-3,52.87282,R,ugm-3,256.86788,R,ugm-3
10-01-2018,14:00,142.06434,R,ugm-3,55.99532,R,ugm-3,273.82427,R,ugm-3
10-01-2018,15:00,99.24455,R,ugm-3,51.67947,R,ugm-3,203.85232,R,ugm-3
10-01-2018,16:00,85.53219,R,ugm-3,61.81193,R,ugm-3,192.95945,R,ugm-3
10-01-2018,17:00,117.57543,R,ugm-3,72.24165,R,ugm-3,252.52146,R,ugm-3
10-01-2018,18:00,93.65935,R,ugm-3,67.97028,R,ugm-3,211.57928,R,ugm-3
10-01-2018,19:00,113.99518,R,ugm-3,69.62871,R,ugm-3,244.41888,R,ugm-3
10-01-2018,20:00,72.24946,R,ugm-3,69.83682,R,ugm-3,180.61777,R,ugm-3
10-01-2018,21:00,33.61855,R,ugm-3,62.21035,R,ugm-3,113.75807,R,ugm-3
10-01-2018,22:00,22.41237,R,ugm-3,56.37301,R,ugm-3,90.73816,R,ugm-3
10-01-2018,23:00,41.85313,R,ugm-3,52.80374,R,ugm-3,116.97764,R,ugm-3
10-01-2018,24:00,24.16669,R,ugm-3,40.96579,R,ugm-3,78.02087,R,ugm-3
11-01-2018,01:00,15.87563,R,ugm-3,34.97564,R,ugm-3,59.31792,R,ugm-3
11-01-2018,02:00,3.72982,R,ugm-3,24.08327,R,ugm-3,29.80224,R,ugm-3
11-01-2018,03:00,1.68559,R,ugm-3,20.46564,R,ugm-3,23.05017,R,ugm-3
11-01-2018,04:00,1.21936,R,ugm-3,17.25822,R,ugm-3,19.12788,R,ugm-3
11-01-2018,05:00,4.19604,R,ugm-3,20.21624,R,ugm-3,26.65008,R,ugm-3
11-01-2018,06:00,29.15712,R,ugm-3,35.61940,R,ugm-3,80.32635,R,ugm-3
11-01-2018,07:00,17.50144,R,ugm-3,30.33355,R,ugm-3,57.16872,R,ugm-3
11-01-2018,08:00,37.44161,R,ugm-3,41.29234,R,ugm-3,98.70201,R,ugm-3
11-01-2018,09:00,60.50191,R,ugm-3,49.40128,R,ugm-3,142.16958,R,ugm-3
11-01-2018,10:00,33.74766,R,ugm-3,39.81024,R,ugm-3,91.55592,R,ugm-3
11-01-2018,11:00,34.89529,R,ugm-3,46.05632,R,ugm-3,99.56169,R,ugm-3
11-01-2018,12:00,40.99211,R,ugm-3,45.46599,R,ugm-3,108.31968,R,ugm-3
11-01-2018,13:00,61.25505,R,ugm-3,50.01958,R,ugm-3,143.94267,R,ugm-3
11-01-2018,14:00,49.13315,R,ugm-3,47.32915,R,ugm-3,122.66559,R,ugm-3
11-01-2018,15:00,56.91555,R,ugm-3,43.83191,R,ugm-3,131.10120,R,ugm-3
11-01-2018,16:00,71.97827,R,ugm-3,49.32042,R,ugm-3,159.68556,R,ugm-3
11-01-2018,17:00,63.47859,R,ugm-3,48.65193,R,ugm-3,145.98441,R,ugm-3
11-01-2018,18:00,62.90477,R,ugm-3,49.74669,R,ugm-3,146.19933,R,ugm-3
11-01-2018,19:00,83.81326,R,ugm-3,48.52848,R,ugm-3,177.04036,R,ugm-3
11-01-2018,20:00,68.85813,R,ugm-3,39.06016,R,ugm-3,144.64116,R,ugm-3
11-01-2018,21:00,53.93887,R,ugm-3,35.44716,R,ugm-3,118.15227,R,ugm-3
11-01-2018,22:00,46.94547,R,ugm-3,34.51082,R,ugm-3,106.49286,R,ugm-3
11-01-2018,23:00,49.70697,R,ugm-3,37.53013,R,ugm-3,113.74641,R,ugm-3
11-01-2018,24:00,17.14281,R,ugm-3,29.91631,R,ugm-3,56.20158,R,ugm-3
12-01-2018,01:00,30.46416,R,ugm-3,31.19211,R,ugm-3,77.90317,R,ugm-3
12-01-2018,02:00,35.74509,R,ugm-3,28.20585,R,ugm-3,83.01422,R,ugm-3
12-01-2018,03:00,17.42349,R,ugm-3,27.89190,R,ugm-3,54.60754,R,ugm-3
12-01-2018,04:00,11.20851,R,ugm-3,25.80048,R,ugm-3,42.98663,R,ugm-3
12-01-2018,05:00,16.70499,R,ugm-3,26.35735,R,ugm-3,51.97132,R,ugm-3
12-01-2018,06:00,27.80573,R,ugm-3,29.99586,R,ugm-3,72.63072,R,ugm-3
12-01-2018,07:00,47.06138,R,ugm-3,32.37466,R,ugm-3,104.53444,R,ugm-3
12-01-2018,08:00,56.83290,R,ugm-3,48.91898,R,ugm-3,136.06155,R,ugm-3
12-01-2018,09:00,62.25754,R,ugm-3,49.37082,R,ugm-3,144.83104,R,ugm-3
12-01-2018,10:00,67.07145,R,ugm-3,44.94861,R,ugm-3,147.79007,R,ugm-3
12-01-2018,11:00,60.10205,R,ugm-3,46.48878,R,ugm-3,138.64398,R,ugm-3
12-01-2018,12:00,39.80459,R,ugm-3,44.95420,R,ugm-3,105.98705,R,ugm-3
12-01-2018,13:00,48.92947,R,ugm-3,46.88788,R,ugm-3,121.91201,R,ugm-3
12-01-2018,14:00,53.34821,R,ugm-3,50.76508,R,ugm-3,132.56452,R,ugm-3
12-01-2018,15:00,39.98421,R,ugm-3,44.19458,R,ugm-3,105.50285,R,ugm-3
12-01-2018,16:00,48.53429,R,ugm-3,55.02587,R,ugm-3,129.44408,R,ugm-3
12-01-2018,17:00,41.96007,R,ugm-3,51.27947,R,ugm-3,115.61735,R,ugm-3
12-01-2018,18:00,34.52365,R,ugm-3,44.44344,R,ugm-3,97.37897,R,ugm-3
12-01-2018,19:00,25.82987,R,ugm-3,53.52347,R,ugm-3,93.12873,R,ugm-3
12-01-2018,20:00,23.78216,R,ugm-3,38.96287,R,ugm-3,75.42835,R,ugm-3
12-01-2018,21:00,17.74681,R,ugm-3,37.24164,R,ugm-3,64.45304,R,ugm-3
12-01-2018,22:00,13.75917,R,ugm-3,30.28241,R,ugm-3,51.37951,R,ugm-3
12-01-2018,23:00,17.10017,R,ugm-3,33.39110,R,ugm-3,59.61099,R,ugm-3
12-01-2018,24:00,7.75974,R,ugm-3,30.17392,R,ugm-3,42.07202,R,ugm-3
13-01-2018,01:00,6.28552,R,ugm-3,24.48067,R,ugm-3,34.11834,R,ugm-3
13-01-2018,02:00,3.79051,R,ugm-3,22.20093,R,ugm-3,28.01296,R,ugm-3
13-01-2018,03:00,3.56260,R,ugm-3,21.90393,R,ugm-3,27.36650,R,ugm-3
13-01-2018,04:00,2.87887,R,ugm-3,18.10391,R,ugm-3,22.51811,R,ugm-3
13-01-2018,05:00,1.83528,R,ugm-3,18.84212,R,ugm-3,21.65617,R,ugm-3
13-01-2018,06:00,3.67055,R,ugm-3,18.02129,R,ugm-3,23.64940,R,ugm-3
13-01-2018,07:00,6.54942,R,ugm-3,17.91678,R,ugm-3,27.95908,R,ugm-3
13-01-2018,08:00,7.73695,R,ugm-3,19.27432,R,ugm-3,31.13748,R,ugm-3
13-01-2018,09:00,13.63863,R,ugm-3,30.96557,R,ugm-3,51.87784,R,ugm-3
13-01-2018,10:00,14.21440,R,ugm-3,28.03563,R,ugm-3,49.83074,R,ugm-3
13-01-2018,11:00,15.36595,R,ugm-3,30.79512,R,ugm-3,54.35591,R,ugm-3
13-01-2018,12:00,15.22200,R,ugm-3,28.69937,R,ugm-3,52.03945,R,ugm-3
13-01-2018,13:00,18.56869,R,ugm-3,32.02562,R,ugm-3,60.49721,R,ugm-3
13-01-2018,14:00,20.69185,R,ugm-3,26.13047,R,ugm-3,57.85753,R,ugm-3
13-01-2018,15:00,20.58389,R,ugm-3,37.55505,R,ugm-3,69.11658,R,ugm-3
13-01-2018,16:00,23.06691,R,ugm-3,46.46138,R,ugm-3,81.83015,R,ugm-3
13-01-2018,17:00,21.91537,R,ugm-3,37.29123,R,ugm-3,70.89432,R,ugm-3
13-01-2018,18:00,44.98228,R,ugm-3,49.05964,R,ugm-3,118.03151,R,ugm-3
13-01-2018,19:00,21.55551,R,ugm-3,35.14945,R,ugm-3,68.20077,R,ugm-3
13-01-2018,20:00,15.61785,R,ugm-3,32.83307,R,ugm-3,56.78010,R,ugm-3
13-01-2018,21:00,15.61785,R,ugm-3,29.43920,R,ugm-3,53.38623,R,ugm-3
13-01-2018,22:00,10.00406,R,ugm-3,26.30299,R,ugm-3,41.64234,R,ugm-3
13-01-2018,23:00,8.85251,R,ugm-3,21.49640,R,ugm-3,35.07007,R,ugm-3
13-01-2018,24:00,19.07249,R,ugm-3,41.91961,R,ugm-3,71.16368,R,ugm-3
14-01-2018,01:00,17.30253,R,ugm-3,31.79868,R,ugm-3,58.32885,R,ugm-3
14-01-2018,02:00,9.85283,R,ugm-3,23.73049,R,ugm-3,38.83795,R,ugm-3
14-01-2018,03:00,9.40825,R,ugm-3,25.76071,R,ugm-3,40.18649,R,ugm-3
14-01-2018,04:00,6.05589,R,ugm-3,26.53166,R,ugm-3,35.81722,R,ugm-3
14-01-2018,05:00,6.27217,R,ugm-3,28.19588,R,ugm-3,37.81306,R,ugm-3
14-01-2018,06:00,10.34547,R,ugm-3,20.81746,R,ugm-3,36.68029,R,ugm-3
14-01-2018,07:00,3.71283,R,ugm-3,18.58079,R,ugm-3,24.27372,R,ugm-3
14-01-2018,08:00,5.91170,R,ugm-3,24.37932,R,ugm-3,33.44379,R,ugm-3
14-01-2018,09:00,6.41635,R,ugm-3,24.19888,R,ugm-3,34.03715,R,ugm-3
14-01-2018,10:00,8.39893,R,ugm-3,26.44524,R,ugm-3,39.32343,R,ugm-3
14-01-2018,11:00,11.93153,R,ugm-3,27.87925,R,ugm-3,46.17401,R,ugm-3
14-01-2018,12:00,6.56054,R,ugm-3,17.50480,R,ugm-3,27.56416,R,ugm-3
14-01-2018,13:00,6.16402,R,ugm-3,15.14600,R,ugm-3,24.59737,R,ugm-3
14-01-2018,14:00,7.53381,R,ugm-3,18.76350,R,ugm-3,30.31518,R,ugm-3
14-01-2018,15:00,5.47913,R,ugm-3,25.25834,R,ugm-3,33.65956,R,ugm-3
14-01-2018,16:00,7.20939,R,ugm-3,29.29408,R,ugm-3,40.34832,R,ugm-3
14-01-2018,17:00,10.23733,R,ugm-3,27.13261,R,ugm-3,42.82963,R,ugm-3
14-01-2018,18:00,6.59659,R,ugm-3,26.34989,R,ugm-3,36.46452,R,ugm-3
14-01-2018,19:00,4.86634,R,ugm-3,25.71247,R,ugm-3,33.17408,R,ugm-3
14-01-2018,20:00,4.36168,R,ugm-3,20.71452,R,ugm-3,27.40233,R,ugm-3
14-01-2018,21:00,5.47913,R,ugm-3,24.23345,R,ugm-3,32.63467,R,ugm-3
14-01-2018,22:00,4.93843,R,ugm-3,25.06252,R,ugm-3,32.63467,R,ugm-3
14-01-2018,23:00,8.14661,R,ugm-3,28.34250,R,ugm-3,40.83379,R,ugm-3
14-01-2018,24:00,1.44188,R,ugm-3,13.59404,R,ugm-3,15.80489,R,ugm-3
15-01-2018,01:00,1.15546,R,ugm-3,14.50398,R,ugm-3,16.27566,R,ugm-3
15-01-2018,02:00,0.57773,R,ugm-3,9.97060,R,ugm-3,10.85644,R,ugm-3
15-01-2018,03:00,0.00000,R,ugm-3,6.48146,R,ugm-3,6.48146,R,ugm-3
15-01-2018,04:00,0.36108,R,ugm-3,5.81978,R,ugm-3,6.37343,R,ugm-3
15-01-2018,05:00,0.39719,R,ugm-3,6.14250,R,ugm-3,6.75152,R,ugm-3
15-01-2018,06:00,1.80540,R,ugm-3,9.70856,R,ugm-3,12.47680,R,ugm-3
15-01-2018,07:00,4.00799,R,ugm-3,15.13528,R,ugm-3,21.28078,R,ugm-3
15-01-2018,08:00,11.84344,R,ugm-3,28.23674,R,ugm-3,46.39642,R,ugm-3
15-01-2018,09:00,14.73208,R,ugm-3,40.71335,R,ugm-3,63.30222,R,ugm-3
15-01-2018,10:00,27.26157,R,ugm-3,45.75318,R,ugm-3,87.55367,R,ugm-3
15-01-2018,11:00,11.48236,R,ugm-3,27.38607,R,ugm-3,44.99211,R,ugm-3
15-01-2018,12:00,14.84040,R,ugm-3,22.88529,R,ugm-3,45.64025,R,ugm-3
15-01-2018,13:00,17.04299,R,ugm-3,30.52650,R,ugm-3,56.65873,R,ugm-3
15-01-2018,14:00,21.30374,R,ugm-3,33.44557,R,ugm-3,66.11085,R,ugm-3
15-01-2018,15:00,13.21554,R,ugm-3,23.37826,R,ugm-3,43.64180,R,ugm-3